Weather History for Faleolo, Samoa

Change the Weather History Date:

Friday, January 18, 2013

  Actual Average Record
Temperature  
Mean Temperature 82 °F -  
Max Temperature 86 °F 85 °F 91 °F (2003)
Min Temperature 77 °F 74 °F 73 °F (1999)
Cooling Degree Days 16    
Growing Degree Days 32 (Base 50)    
Moisture  
Dew Point 77 °F    
Average Humidity 86    
Maximum Humidity 100    
Minimum Humidity 71    
Precipitation  
Precipitation 0.59 in - - ()
Sea Level Pressure  
Sea Level Pressure 29.64 in    
Wind  
Wind Speed 5 mph ()    
Max Wind Speed 10 mph    
Max Gust Speed -    
Visibility 13.1 miles    
Events Rain    
Averages and records for this station are not official NWS values.
T = Trace of Precipitation, MM = Missing Value Source: Averaged Metar Reports

Daily Weather History Graph

Daily Weather History Graph

Search for Another Location

Airport:

Trip Planner

Search our weather history database for the weather conditions in past years. The results will help you decide how hot, cold, wet, or windy it might be!

Date:

Astronomy

Jan. 19, 2013 Rise Set
Actual Time 7:13 AM WSDT 8:03 PM WSDT
Civil Twilight 6:50 AM WSDT 8:26 PM WSDT
Nautical Twilight 6:23 AM WSDT 8:53 PM WSDT
Astronomical Twilight 5:56 AM WSDT 9:20 PM WSDT
Moon 12:42 PM WSDT (1/18) 12:02 AM WSDT (1/18)
Length of Visible Light 13h 35m
Length of Day
12h 49m
Waxing Crescent, 39% of the Moon is Illuminated
Jan 18
Waxing Crescent
Jan 19
First Quarter
Jan 27
Full
Feb 4
Last Quarter
Feb 10
New

Hourly Weather History & Observations

Time (WSDT) Temp. Heat Index Dew Point Humidity Pressure Visibility Wind Dir Wind Speed Gust Speed Precip Events Conditions
7:00 AM 77.0 °F - 75.2 °F 94% 29.65 in 18.6 mi West 6.9 mph - N/A   Mostly Cloudy
8:00 AM 78 °F - 75 °F 89% 29.67 in 12 mi West 5.8 mph - -   Overcast
8:00 AM 78.8 °F - 75.2 °F 89% 29.65 in 18.6 mi West 5.8 mph - N/A   Overcast
10:00 AM 78.8 °F - 78.8 °F 100% 29.65 in 21.8 mi WSW 5.8 mph - N/A   Overcast
11:00 AM 78 °F - 77 °F 96% 29.68 in 12 mi SW 10.4 mph - - Rain Light Drizzle
12:00 PM 80.6 °F 87.1 °F 77.0 °F 89% 29.65 in 12.4 mi WSW 6.9 mph - N/A   Drizzle
1:00 PM 82.4 °F 92.4 °F 78.8 °F 89% 29.65 in 24.9 mi SW 6.9 mph - N/A   Mostly Cloudy
2:00 PM 85 °F - 77 °F 72% 29.64 in 12 mi SW 6.9 mph - -   Partly Cloudy
2:00 PM 84.2 °F 94.1 °F 77.0 °F 79% 29.62 in 24.9 mi SW 6.9 mph - N/A   Mostly Cloudy
3:00 PM 86.0 °F 99.3 °F 78.8 °F 79% 29.59 in 24.9 mi WSW 6.9 mph - N/A   Mostly Cloudy
4:00 PM 86.0 °F 96.9 °F 77.0 °F 74% 29.59 in 28.0 mi West 10.4 mph - N/A   Mostly Cloudy
5:00 PM 86 °F - 78 °F 71% 29.61 in 12 mi SSW 10.4 mph - -   Mostly Cloudy
5:00 PM 86.0 °F 96.9 °F 77.0 °F 74% 29.59 in 24.9 mi West 10.4 mph - N/A   Mostly Cloudy
6:00 PM 84.2 °F 94.1 °F 77.0 °F 79% 29.59 in 24.9 mi North 4.6 mph - N/A   Mostly Cloudy
7:00 PM 84.2 °F 94.1 °F 77.0 °F 79% 29.62 in 12.4 mi WSW 5.8 mph - N/A   Overcast
8:00 PM 81 °F - 79 °F 90% 29.66 in 12 mi Calm Calm - -   Mostly Cloudy
8:00 PM 80.6 °F 88.1 °F 78.8 °F 94% 29.65 in 12.4 mi Calm Calm - N/A   Mostly Cloudy
9:00 PM 80.6 °F 88.1 °F 78.8 °F 94% 29.65 in 12.4 mi Calm Calm - N/A   Mostly Cloudy
10:00 PM 80.6 °F 87.1 °F 77.0 °F 89% 29.68 in 12.4 mi Calm Calm - N/A   Mostly Cloudy
11:00 PM 78 °F - 77 °F 94% 29.69 in 12 mi Calm Calm - -   Mostly Cloudy
11:00 PM 78.8 °F - 77.0 °F 94% 29.68 in 12.4 mi Calm Calm - N/A   Mostly Cloudy